User: anonymous   Login
Location: Dittelspoint
(48.7198°N, 10.7214°E)
Time: 20:11:13
(UTC+00:00)
Language:

Cosmos 2151 - Orbit

View from above orbital plane
View from above orbital plane
View from above satellite
View from above satellite

Ground track
Ground track

The orbit data is extracted from the following two-line orbital elements,

1 21422U 91042A   20185.21748112  .00000112  00000-0  84371-5 0  9991
2 21422  82.5010 267.9321 0014345 174.0863 186.0528 14.92138828574311
Epoch (UTC): 03 July 2020 05:13:10
Eccentricity: 0.0014345
inclination: 82.5010°
perigee height: 581 km
apogee height: 601 km
right ascension of ascending node: 267.9321°
argument of perigee: 174.0863°
revolutions per day: 14.92138828
mean anomaly at epoch: 186.0528°
orbit number at epoch: 57431

The dashed part of the orbit path shows where the satellite is in the earth's shadow,  

DLR